Location: St. Louis
(38.6270°N, 90.1994°W)
Time: 21:22:54
(UTC-06:00)

Altair - Pass Details

Date: 04 December 2021
Orbit: 1501 x 1683 km, 47.2° (Epoch: 26 January)

Event Time Altitude Azimuth Distance (km) Brightness Sun altitude
Rises 21:25:29 0° 300° (WNW) 4,661 10.6 -54.9°
Reaches altitude 10° 21:28:31 10° 299° (WNW) 3,666 9.9 -55.5°
Enters shadow 21:30:55 21° 297° (WNW) 2,913 9.2 -56.0°
